Location: Seattle
(47.6064°N, 122.3308°W)
Time: 04:56:41
(UTC-07:00)

ITUPSAT 1 - Pass Details

Date: 02 April 2023
Orbit: 697 x 710 km, 98.5° (Epoch: 29 May)

Event Time Altitude Azimuth Distance (km) Brightness Sun altitude
Rises 23:28:18 0° 5° (N) 3,122 ? -32.4°
Reaches altitude 10° 23:30:50 10° 353° (N) 2,196 ? -32.6°
Maximum altitude 23:34:51 27° 297° (WNW) 1,342 ? -32.9°
Enters shadow 23:35:18 27° 287° (WNW) 1,354 ? -33.0°
